Terug naar catalogus

THOR ABLESTAR DEB

ActiefLEO
NORAD 558·DEBRIS·🇺🇸 United States

Gelanceerd Jun 29, 1961 vanaf Cape Canaveral Space Force Station

Loading…

Volgende Passages (komende 24 uur)

TLE

VersSource: Space-Track

Epoch: Sep 14, 2026, 14:27 UTC

1 00558U 61015GQ  26257.60263027 -.00000017  00000-0  11874-3 0  9992
2 00558  65.7015 326.3535 0463453  63.0859   8.7043 12.86541563 61063

Volg THOR ABLESTAR DEB in realtime met AllMySat

Download on the App Store